| time (UTC) | temp F | wind direction | speed MPH | gust MPH | rain 1hr in | rain 24hr in | rain mn in | humidity % | barometer mb |
| 20260901204550 | 72 | 254 | 10.0 | 17.0 | 0.00 | 0.00 | 0.00 | 75 | 1014.6 |
| 20260901203052 | 72 | 219 | 6.0 | 14.0 | 0.00 | 0.00 | 0.00 | 75 | 1014.7 |
| 20260901201548 | 72 | 229 | 11.0 | 16.0 | 0.00 | 0.00 | 0.00 | 72 | 1014.9 |
| 20260901200058 | 72 | 273 | 7.0 | 13.0 | 0.00 | 0.00 | 0.00 | 72 | 1015.1 |
| 20260901194601 | 72 | 274 | 6.0 | 11.0 | 0.00 | 0.00 | 0.00 | 73 | 1015.3 |
| 20260901193046 | 72 | 213 | 5.0 | 9.0 | 0.00 | 0.00 | 0.00 | 74 | 1015.4 |
| 20260901191545 | 72 | 209 | 4.0 | 8.0 | 0.00 | 0.00 | 0.00 | 73 | 1015.6 |
| 20260901190101 | 72 | 217 | 5.0 | 10.0 | 0.00 | 0.00 | 0.00 | 74 | 1015.7 |
| 20260901184541 | 72 | 186 | 4.0 | 8.0 | 0.00 | 0.00 | 0.00 | 74 | 1015.7 |
| 20260901183043 | 71 | 194 | 5.0 | 10.0 | 0.00 | 0.00 | 0.00 | 74 | 1015.7 |
| 20260901181549 | 71 | 189 | 5.0 | 8.0 | 0.00 | 0.00 | 0.00 | 74 | 1015.8 |
| 20260901180037 | 70 | 225 | 6.0 | 9.0 | 0.00 | 0.00 | 0.00 | 75 | 1015.8 |
| 20260901174535 | 70 | 183 | 6.0 | 9.0 | 0.00 | 0.00 | 0.00 | 76 | 1015.9 |
| 20260901173040 | 70 | 146 | 6.0 | 8.0 | 0.00 | 0.00 | 0.00 | 77 | 1015.8 |
| 20260901171533 | 70 | 188 | 5.0 | 10.0 | 0.00 | 0.00 | 0.00 | 77 | 1015.6 |
| 20260901170031 | 70 | 202 | 3.0 | 6.0 | 0.00 | 0.00 | 0.00 | 76 | 1015.5 |
| 20260901164527 | 70 | 239 | 3.0 | 7.0 | 0.00 | 0.00 | 0.00 | 77 | 1015.5 |
| 20260901163025 | 69 | 180 | 2.0 | 6.0 | 0.00 | 0.00 | 0.00 | 79 | 1015.5 |
| 20260901161524 | 69 | 218 | 2.0 | 5.0 | 0.00 | 0.00 | 0.00 | 79 | 1015.5 |
| 20260901160024 | 69 | 102 | 2.0 | 6.0 | 0.00 | 0.00 | 0.00 | 78 | 1015.5 |
| 20260901154519 | 69 | 98 | 0.0 | 7.0 | 0.00 | 0.00 | 0.00 | 80 | 1015.4 |
| 20260901153032 | 69 | 186 | 0.0 | 3.0 | 0.00 | 0.00 | 0.00 | 80 | 1015.3 |
| 20260901151516 | 68 | 115 | 2.0 | 3.0 | 0.00 | 0.00 | 0.00 | 80 | 1015.3 |
| 20260901150015 | 68 | 138 | 2.0 | 5.0 | 0.00 | 0.00 | 0.00 | 81 | 1015.1 |
| 20260901144522 | 69 | 99 | 2.0 | 7.0 | 0.00 | 0.00 | 0.00 | 81 | 1014.8 |
| 20260901143008 | 67 | 109 | 3.0 | 7.0 | 0.00 | 0.00 | 0.00 | 83 | 1014.6 |
| 20260901141510 | 67 | 93 | 3.0 | 6.0 | 0.00 | 0.00 | 0.00 | 83 | 1014.6 |
| 20260901140005 | 67 | 118 | 1.0 | 2.0 | 0.00 | 0.00 | 0.00 | 84 | 1014.5 |
| 20260901134503 | 67 | 242 | 0.0 | 2.0 | 0.00 | 0.00 | 0.00 | 85 | 1014.4 |
| 20260901133005 | 67 | 257 | 0.0 | 0.0 | 0.00 | 0.00 | 0.00 | 86 | 1014.3 |
| 20260901131504 | 67 | 153 | 0.0 | 0.0 | 0.00 | 0.00 | 0.00 | 87 | 1014.2 |
| 20260901130101 | 66 | 213 | 0.0 | 0.0 | 0.00 | 0.00 | 0.00 | 87 | 1014.0 |
| 20260901124602 | 66 | 287 | 0.0 | 0.0 | 0.00 | 0.00 | 0.00 | 87 | 1013.9 |
| 20260901123059 | 66 | 286 | 0.0 | 0.0 | 0.00 | 0.00 | 0.00 | 87 | 1014.1 |
| 20260901121611 | 65 | 258 | 0.0 | 0.0 | 0.00 | 0.00 | 0.00 | 87 | 1013.9 |
| 20260901120106 | 65 | 259 | 0.0 | 0.0 | 0.00 | 0.00 | 0.00 | 86 | 1013.7 |
| 20260901114601 | 66 | 260 | 0.0 | 1.0 | 0.00 | 0.00 | 0.00 | 86 | 1013.7 |
| 20260901113055 | 66 | 304 | 1.0 | 2.0 | 0.00 | 0.00 | 0.00 | 85 | 1013.7 |
| 20260901111554 | 66 | 332 | 0.0 | 0.0 | 0.00 | 0.00 | 0.00 | 85 | 1013.7 |
| 20260901110051 | 66 | 297 | 0.0 | 3.0 | 0.00 | 0.00 | 0.00 | 85 | 1013.9 |
| 20260901104550 | 67 | 283 | 1.0 | 3.0 | 0.00 | 0.00 | 0.00 | 84 | 1014.0 |
| 20260901103052 | 67 | 300 | 1.0 | 4.0 | 0.00 | 0.00 | 0.00 | 84 | 1014.0 |
| 20260901101552 | 67 | 244 | 3.0 | 6.0 | 0.00 | 0.00 | 0.00 | 84 | 1014.0 |
| 20260901100047 | 67 | 279 | 4.0 | 6.0 | 0.00 | 0.00 | 0.00 | 84 | 1014.0 |
| 20260901094547 | 67 | 263 | 4.0 | 7.0 | 0.00 | 0.00 | 0.00 | 84 | 1014.0 |
| 20260901093114 | 67 | 263 | 3.0 | 6.0 | 0.00 | 0.00 | 0.00 | 84 | 1013.9 |
| 20260901091559 | 67 | 261 | 3.0 | 7.0 | 0.00 | 0.00 | 0.00 | 85 | 1013.9 |
| 20260901090044 | 67 | 265 | 4.0 | 7.0 | 0.00 | 0.00 | 0.00 | 85 | 1013.8 |
| 20260901084541 | 67 | 260 | 3.0 | 6.0 | 0.00 | 0.00 | 0.00 | 85 | 1013.9 |
| 20260901083045 | 67 | 256 | 3.0 | 5.0 | 0.00 | 0.00 | 0.00 | 85 | 1014.1 |
| 20260901081541 | 67 | 258 | 1.0 | 3.0 | 0.00 | 0.00 | 0.00 | 85 | 1014.2 |
| 20260901080044 | 67 | 270 | 2.0 | 3.0 | 0.00 | 0.00 | 0.00 | 85 | 1014.1 |
| 20260901074536 | 67 | 240 | 0.0 | 3.0 | 0.00 | 0.00 | 0.00 | 85 | 1014.2 |
| 20260901073035 | 67 | 265 | 2.0 | 6.0 | 0.00 | 0.00 | 0.00 | 86 | 1014.2 |
| 20260901071536 | 68 | 266 | 1.0 | 4.0 | 0.00 | 0.00 | 0.00 | 85 | 1014.0 |
| 20260901070035 | 68 | 263 | 2.0 | 4.0 | 0.00 | 0.00 | 0.00 | 85 | 1014.1 |
| 20260901064536 | 68 | 263 | 2.0 | 6.0 | 0.00 | 0.00 | 0.00 | 86 | 1014.0 |
| 20260901063029 | 68 | 249 | 4.0 | 7.0 | 0.00 | 0.00 | 0.00 | 86 | 1013.9 |
| 20260901061528 | 68 | 244 | 3.0 | 5.0 | 0.00 | 0.00 | 0.00 | 86 | 1013.6 |
| 20260901060027 | 68 | 248 | 1.0 | 4.0 | 0.00 | 0.00 | 0.00 | 86 | 1013.6 |
| 20260901054525 | 68 | 235 | 2.0 | 6.0 | 0.00 | 0.00 | 0.00 | 86 | 1013.6 |
| 20260901053025 | 68 | 250 | 4.0 | 8.0 | 0.00 | 0.00 | 0.00 | 86 | 1013.6 |
| 20260901051523 | 68 | 277 | 5.0 | 7.0 | 0.00 | 0.00 | 0.00 | 86 | 1013.5 |
| 20260901050023 | 68 | 243 | 3.0 | 6.0 | 0.00 | 0.00 | 0.00 | 85 | 1013.4 |
| 20260901044521 | 68 | 223 | 4.0 | 6.0 | 0.00 | 0.00 | 0.00 | 85 | 1013.3 |
| 20260901043021 | 68 | 261 | 5.0 | 10.0 | 0.00 | 0.00 | 0.00 | 85 | 1013.3 |
| 20260901041520 | 68 | 242 | 3.0 | 7.0 | 0.00 | 0.00 | 0.00 | 85 | 1013.2 |
| 20260901040021 | 68 | 248 | 1.0 | 6.0 | 0.00 | 0.00 | 0.00 | 85 | 1013.0 |
| 20260901034519 | 68 | 247 | 4.0 | 8.0 | 0.00 | 0.00 | 0.00 | 85 | 1012.6 |
| 20260901033033 | 68 | 249 | 4.0 | 9.0 | 0.00 | 0.00 | 0.00 | 85 | 1012.4 |
| 20260901031516 | 69 | 244 | 6.0 | 10.0 | 0.00 | 0.00 | 0.00 | 85 | 1012.3 |
| 20260901030016 | 69 | 257 | 6.0 | 13.0 | 0.00 | 0.00 | 0.00 | 85 | 1012.1 |
| 20260901024514 | 69 | 252 | 8.0 | 13.0 | 0.00 | 0.00 | 0.00 | 84 | 1011.9 |
| 20260901023013 | 69 | 252 | 7.0 | 12.0 | 0.00 | 0.00 | 0.00 | 84 | 1011.7 |
| 20260901021517 | 69 | 281 | 7.0 | 14.0 | 0.00 | 0.00 | 0.00 | 83 | 1011.7 |
| 20260901020012 | 70 | 257 | 11.0 | 16.0 | 0.00 | 0.00 | 0.00 | 83 | 1011.8 |
| 20260901014510 | 70 | 219 | 11.0 | 16.0 | 0.00 | 0.00 | 0.00 | 82 | 1011.7 |
| 20260901013009 | 70 | 234 | 9.0 | 17.0 | 0.00 | 0.00 | 0.00 | 81 | 1011.7 |
| 20260901011509 | 71 | 238 | 9.0 | 18.0 | 0.00 | 0.00 | 0.00 | 82 | 1011.6 |
| 20260901010007 | 71 | 263 | 12.0 | 19.0 | 0.00 | 0.00 | 0.00 | 81 | 1011.6 |
| 20260901004505 | 71 | 244 | 13.0 | 19.0 | 0.00 | 0.00 | 0.00 | 81 | 1011.9 |
| 20260901003004 | 71 | 245 | 13.0 | 21.0 | 0.00 | 0.00 | 0.00 | 81 | 1011.9 |
| 20260901001508 | 72 | 263 | 13.0 | 22.0 | 0.00 | 0.00 | 0.00 | 81 | 1011.8 |
| 20260901000001 | 72 | 259 | 13.0 | 19.0 | 0.00 | 0.00 | 0.00 | 81 | 1011.9 |
| 20260831234602 | 72 | 257 | 15.0 | 24.0 | 0.00 | 0.00 | 0.00 | 82 | 1011.9 |
| 20260831233054 | 72 | 253 | 11.0 | 19.0 | 0.00 | 0.00 | 0.00 | 81 | 1012.0 |
| 20260831231553 | 73 | 216 | 11.0 | 19.0 | 0.00 | 0.00 | 0.00 | 80 | 1011.9 |
| 20260831230049 | 73 | 265 | 11.0 | 16.0 | 0.00 | 0.00 | 0.00 | 80 | 1011.8 |
| 20260831224547 | 73 | 234 | 12.0 | 18.0 | 0.00 | 0.00 | 0.00 | 79 | 1011.9 |
| 20260831223045 | 73 | 252 | 12.0 | 20.0 | 0.00 | 0.00 | 0.00 | 80 | 1012.1 |
| 20260831221546 | 73 | 225 | 13.0 | 20.0 | 0.00 | 0.00 | 0.00 | 80 | 1012.3 |
| 20260831220052 | 73 | 211 | 12.0 | 20.0 | 0.00 | 0.00 | 0.00 | 79 | 1012.4 |
| 20260831214543 | 74 | 227 | 11.0 | 17.0 | 0.00 | 0.00 | 0.00 | 77 | 1012.5 |
| 20260831213041 | 74 | 208 | 7.0 | 13.0 | 0.00 | 0.00 | 0.00 | 77 | 1012.8 |
| 20260831211533 | 74 | 243 | 6.0 | 14.0 | 0.00 | 0.00 | 0.00 | 78 | 1013.2 |
| 20260831210036 | 74 | 221 | 7.0 | 12.0 | 0.00 | 0.00 | 0.00 | 78 | 1013.2 |